Regional Weather Roundup
Issued by NWS

Home | Current Version | Previous Version | Graphics & Text | Print | Product List | Glossary On
Versions: 1 2 3 4 5 6 7 8 9 10 11 12 13 14 15 16 17 18 19 20 21 22 23 24 25 26 27 28 29 30 31 32 33 34 35 36 37 38 39 40 41 42 43 44 45 46 47 48 49 50
000
ASUS43 KLOT 270009
RWRIL

ILLINOIS REGIONAL WEATHER ROUNDUP
NATIONAL WEATHER SERVICE CHICAGO/ROMEOVILLE IL
700 PM CDT SAT MAY 26 2018

NOTE: "FAIR" INDICATES FEW OR NO CLOUDS BELOW 12,000 FEET WITH NO
SIGNIFICANT WEATHER AND/OR OBSTRUCTIONS TO VISIBILITY.

* THESE STATIONS ARE NOT UNDER NWS QUALITY CONTROL. THEY ALSO MAY NOT
  REPORT WEATHER SUCH AS PRECIPITATION OR FOG.

ILZ001-002-007-009-015-016-024-270100-
NORTHWEST ILLINOIS

CITY           SKY/WX    TMP DP  RH WIND       PRES   REMARKS
MOLINE         FAIR      89  64  43 NW3       29.73S HX  90
6HR MIN TEMP:  87; 6HR MAX TEMP:  93;

STERLING*        N/A    N/A N/A N/A MISG        N/A
SAVANNA*       FAIR      88  67  50 CALM      29.74S HX  91
$$

ILZ003-004-008-010-011-017-018-270100-
NORTH CENTRAL ILLINOIS

CITY           SKY/WX    TMP DP  RH WIND       PRES   REMARKS
ROCKFORD       FAIR      86  61  42 SW5       29.75R HX  86
6HR MIN TEMP:  84; 6HR MAX TEMP:  89;

FREEPORT*      FAIR      85  64  50 SW7       29.77R HX  86
ROCHELLE*      FAIR      86  62  43 NW6       29.76R HX  86
DE KALB*       FAIR      86  62  44 W8        29.77R HX  86
PERU*          FAIR      88  68  51 SW5       29.75S HX  92
$$

ILZ005-006-012>014-019>023-270100-
NORTHEAST ILLINOIS

CITY           SKY/WX    TMP DP  RH WIND       PRES   REMARKS
CHICAGO-OHARE  FAIR      89  60  37 E8        29.73R HX  89
6HR MIN TEMP:  85; 6HR MAX TEMP:  90;

CHICAGO-MIDWAY FAIR      84  59  42 E9        29.73S HX  84
6HR MIN TEMP:  84; 6HR MAX TEMP:  90;

AURORA         FAIR      87  64  46 W6        29.74R HX  88
6HR MIN TEMP:  85; 6HR MAX TEMP:  90;

LANSING*       FAIR      86  65  49 W3        29.74S HX  87
JOLIET*        FAIR      90  63  40 SW3       29.74R HX  90
WAUKEGAN       FAIR      76  60  57 SE5       29.74R
6HR MIN TEMP:  76; 6HR MAX TEMP:  83;

DUPAGE AIRPORT FAIR      87  61  41 NW7       29.74R HX  87
6HR MIN TEMP:  84; 6HR MAX TEMP:  90;

KANKAKEE*      FAIR      85  61  44 NW7       29.76R HX  85
WHEELING       FAIR      85  62  46 SE7       29.75R HX  85
6HR MIN TEMP:  85; 6HR MAX TEMP:  91;

MORRIS*        FAIR      87  61  41 W7        29.74R HX  87
ROMEOVILLE*    FAIR      88  60  37 W7        29.75R HX  88
$$

LMZ740>746-270100-
SOUTHERN LAKE MICHIGAN

STATION/POSITION SKY/WX   TEMP    WIND        PRES    VSBY  WAVE
                          AIR SEA DIR/SP/G                  HT/PER
                          (F)     (DEG/KT/KT) (MB)    (MI)  (FT/S)
SOUTHERN BUOY              55 41  170/  8/  8 1007.6R         0
WILMETTE HARBOR            64 59  160/  6/  6   N/A           0
HARRISON CRIB              73     130/  8/  9   N/A
BURNHAM HARBOR                     CALM  /  4   N/A
CALUMET HARBOR             74      80/  6/  8 1007.0S
BURNS HARBOR               74      80/  8/ 10 1007.8S
MICHIGAN CITY              76      40/  7/  7   N/A
MICHIGAN CITY 6N           73 69   90/  4/  6   N/A           0
ST. JOSEPH                 74 67  120/  2/  2 1007.3          0
$$

ILZ025>027-034>036-040-047-049-050-058-095>099-270100-
WEST-CENTRAL ILLINOIS

CITY           SKY/WX    TMP DP  RH WIND       PRES   REMARKS
QUINCY         TSTM      79  66  64 N8        29.77R HX  81
GALESBURG*     FAIR      82  70  66 E6        29.77S HX  86
MACOMB*        CLOUDY    76  64  66 SW3       29.78R
JACKSONVILLE*  CLOUDY    84  72  66 W5        29.78R HX  90
PITTSFIELD*    MOSUNNY   88  71  57 SW5       29.78R HX  94
$$

ILZ028>032-037-038-041>044-048-051>054-059>061-270100-
CENTRAL ILLINOIS

CITY           SKY/WX    TMP DP  RH WIND       PRES   REMARKS
PONTIAC        FAIR      87  65  47 SW6       29.77R HX  88
BLOOMINGTON    FAIR      84  63  49 W8        29.79R HX  85
DECATUR        FAIR      88  61  40 W6        29.77S HX  88
PEORIA         FAIR      83  72  69 S6        29.75F HX  88
6HR MIN TEMP:  83; 6HR MAX TEMP:  89;

LACON*         FAIR      82  67  58 CALM      29.74F HX  85
LINCOLN*       FAIR      87  65  48 CALM      29.77S HX  88
SPRINGFIELD    FAIR      87  69  54 SW3       29.77S HX  91
6HR MIN TEMP:  84; 6HR MAX TEMP:  91;

TAYLORVILLE    FAIR      86  66  50 S5        29.77S HX  88
6HR MIN TEMP:  83; 6HR MAX TEMP:  87;

$$

ILZ033-039-045-046-055>057-062-063-270100-
EAST-CENTRAL ILLINOIS

CITY           SKY/WX    TMP DP  RH WIND       PRES   REMARKS
CHAMPAIGN      FAIR      86  65  49 NW7       29.78R HX  88
DANVILLE*      PTSUNNY   86  66  50 W8        29.75R HX  88
RANTOUL*       FAIR      86  69  56 SW7       29.77R HX  90
MATTOON        FAIR      86  67  52 W6        29.77R HX  89
PARIS*         FAIR      88  64  44 NW6       29.78R HX  89
$$

ILZ079-100>102-270100-
SOUTHWEST ILLINOIS

CITY           SKY/WX    TMP DP  RH WIND       PRES   REMARKS
ALTON          MOSUNNY   90  70  51 SW7       29.78R HX  95
BELLEVILLE     MOSUNNY   86  73  64 S10       29.77R HX  92
CAHOKIA*       SUNNY     89  67  47 S7        29.77R HX  92
SPARTA*        CLOUDY    84  74  73 S3        29.81R HX  91
$$

ILZ064>066-069>071-074>076-080>082-084>086-088>090-092>094-270100-
SOUTH-CENTRAL ILLINOIS

CITY           SKY/WX    TMP DP  RH WIND       PRES   REMARKS
CARBONDALE     FAIR      84  71  65 S6        29.79S HX  89
6HR MIN TEMP:  83; 6HR MAX TEMP:  87;

CAIRO*         FAIR      85  70  61 SE6       29.79S HX  89
EFFINGHAM*     FAIR      86  67  51 SE5       29.80R HX  89
MARION         MOSUNNY   82  70  65 S7        29.80S HX  86
MT. VERNON     FAIR      85  71  63 SW5       29.80R HX  90
CENTRALIA*     MOSUNNY   87  70  57 SW6       29.79R HX  92
SALEM*         FAIR      88  65  46 SW9       29.79R HX  90
METROPOLIS*    FAIR      85  69  58 CALM      29.81R HAZE    HX  89
$$

ILZ067-068-072-073-078-083-087-091-270100-
SOUTHEAST ILLINOIS

CITY           SKY/WX    TMP DP  RH WIND       PRES   REMARKS
LAWRENCEVILLE  FAIR      87  63  44 SW5       29.77R HX  88
FLORA*         FAIR      88  67  50 SW7       29.79R HX  91
FAIRFIELD*     FAIR      84  67  57 SW5       29.78R HX  87
HARRISBURG*    FAIR      84  71  66 SW5       29.80R HX  88
ROBINSON*      FAIR      85  67  53 W7        29.78R HX  87
CARMI*         FAIR      86  70  59 SW8       29.78S HX  90
$$

ABBREVIATIONS USED IN REMARKS
   TC - TEMPERATURE IN CELSIUS
  WCI - WIND CHILL INDEX
   HX - HEAT INDEX
  VSB - VISIBILITY
$$





USA.gov is the U.S. government's official web portal to all federal, state and local government web resources and services.